Flag for Italy Weather past 2 weeks in Naples, Italy

Now
79 °F

Broken clouds.


Feels Like: 82 °F
Forecast: 73 / 87 °F
Wind: 6 mph from Southwest

Location: Naples / Capodichino

Current Time: Aug 2, 2014 at 10:19:57 AM

Latest Report: Aug 2, 2014 at 9:50 AM


Visibility: N/A

Pressure: 29.89 "Hg

Humidity: 79%

Dew point: 72 °F

Location of NaplesLocation

Historic Weather in Naples — Graph

°F

Naples temperature yesterday

Maximum temperature yesterday: 84 °F (at 12:50 PM)
Minimum temperature yesterday: 68 °F (at 6:20 AM)
Average temperature yesterday: 77 °F

Past Weeks' High & Low Weather Summary

 TemperatureHumidityPressure
High90 °F (Jul 18, 3:20 PM)94% (Jul 22, 10:50 AM)30.04 "Hg (Jul 22, 10:50 AM)
Low63 °F (Jul 22, 6:20 PM)29% (Jul 19, 5:50 PM)29.68 "Hg (Jul 30, 3:20 AM)
Average77 °F69%29.88 "Hg
* Reported Jul 18 8:20 AM — Aug 2 8:50 AM, Naples, Weather by CustomWeather, © 2014

Note: Actual official high and low records may vary slightly from our data, if they occured in-between our weather recording intervals... More about our weather records

Advertising

Naples weather history for previous 24 hours

 ConditionsComfort  
Time TempWeatherWind HumidityBarometerVisibility
8:50 AM
Aug 2
77 °FBroken clouds.3 mph79%29.89 "HgN/A
8:20 AM77 °FBroken clouds.2 mph83%29.89 "HgN/A
7:50 AM77 °FWarm.No wind83%29.86 "HgN/A
7:20 AM77 °FScattered clouds.No wind79%29.86 "Hg4 mi
6:50 AM73 °FPassing clouds.No wind83%29.86 "Hg4 mi
6:20 AM73 °FPassing clouds.2 mph89%29.86 "Hg4 mi
5:50 AM73 °FPassing clouds.2 mph83%29.86 "Hg4 mi
5:20 AM73 °FPassing clouds.2 mph83%29.86 "HgN/A
4:50 AM73 °FPassing clouds.2 mph83%29.86 "HgN/A
4:20 AM73 °FPassing clouds.1 mph89%29.86 "HgN/A
3:50 AM73 °FPassing clouds.1 mph89%29.86 "HgN/A
3:20 AM73 °FPassing clouds.2 mph89%29.86 "HgN/A
2:50 AM73 °FPassing clouds.1 mph83%29.86 "HgN/A
2:20 AM73 °FClear.No wind89%29.86 "Hg10 mi
1:50 AM75 °FClear.2 mph83%29.86 "Hg10 mi
1:20 AM75 °FClear.No wind83%29.86 "Hg10 mi
12:50 AM75 °FClear.No wind83%29.86 "Hg10 mi
12:20 AM75 °FClear.2 mph83%29.86 "Hg10 mi
11:50 PM
Aug 1
75 °FClear.2 mph83%29.86 "Hg10 mi
11:20 PM75 °FClear.1 mph83%29.86 "Hg10 mi
10:50 PM77 °FClear.1 mph79%29.83 "Hg10 mi
10:20 PM77 °FClear.2 mph79%29.83 "Hg10 mi
9:50 PM77 °FClear.3 mph79%29.83 "Hg10 mi
9:20 PM77 °FPassing clouds.6 mph79%29.83 "HgN/A
8:50 PM77 °FSunny.6 mph79%29.83 "Hg10 mi
8:20 PM79 °FPassing clouds.5 mph74%29.83 "HgN/A
7:50 PM79 °FPassing clouds.7 mph70%29.83 "HgN/A
7:20 PM81 °FPassing clouds.8 mph70%29.83 "HgN/A
6:50 PM81 °FPassing clouds.8 mph66%29.80 "HgN/A
6:20 PM82 °FPassing clouds.7 mph62%29.80 "HgN/A
5:50 PM82 °FPassing clouds.7 mph62%29.80 "HgN/A
5:20 PM82 °FPassing clouds.7 mph66%29.80 "HgN/A
4:50 PM82 °FPassing clouds.5 mph62%29.80 "HgN/A
4:20 PM82 °FPassing clouds.6 mph58%29.80 "HgN/A
3:50 PM84 °FScattered clouds.8 mph55%29.80 "HgN/A
3:20 PM82 °FScattered clouds.8 mph58%29.80 "HgN/A
2:50 PM84 °FScattered clouds.9 mph58%29.80 "HgN/A
2:20 PM81 °FPartly sunny.7 mph66%29.80 "HgN/A
1:50 PM82 °FPartly sunny.7 mph62%29.80 "HgN/A
1:20 PM81 °FPartly sunny.7 mph66%29.83 "HgN/A
12:50 PM84 °FPartly sunny.7 mph62%29.83 "HgN/A
12:20 PM81 °FPartly sunny.6 mph66%29.83 "HgN/A
11:50 AM81 °FPartly sunny.6 mph66%29.83 "HgN/A
11:20 AM82 °FPartly sunny.3 mph62%29.83 "HgN/A
10:50 AM81 °FPartly sunny.2 mph62%29.83 "HgN/A
10:20 AM81 °FScattered clouds.3 mph62%29.83 "HgN/A
Weather by CustomWeather, © 2014

See weather overviewHow to use our weather pages